Temperature
16 16 16 16 16 16 16 15 15 15 15 15 15 15 15 15 15 15 15 15 15 15 15 15 15 15 15 15 15 15 15 15 15 15 15 15 15 15 15 15 15 15 15
15 15 15 15 15 15 15 15 15 15 15 15 15 15 15 15 15 15 15 15 15 15 15 15 15 15 15 15 15 15 14 15 15 15 15 15 15 15 15 15 15 15 15
15 15 15 15 15 15 15 15 15 15 15 15 15 15 15 15 14 15 15 15 15 15 15 15 15 15 15 15 15 14 14 14 14 14 15 15 14 14 14 14 14 14 14
15 15 15 15 15 15 15 15 15 15 15 14 14 14 14 14 14 14 14 14 14 14 14 14 14 14 15 14 14 15 14 14 14 14 14 14 14 14 14 14 14 14 14
15 15 15 15 15 15 14 14 14 14 14 14 14 14 14 14 14 14 14 14 14 14 14 14 14 14 14 14 14 14 14 14 14 14 14 14 14 14 14 14 14 14 14
15 15 15 14 14 14 14 14 14 14 14 14 14 14 14 14 14 14 14 14 14 14 14 14 14 14 14 14 14 14 14 14 14 14 14 14 14 14 14 14 14 14 14
15 14 14 14 14 14 14 14 14 14 14 14 14 14 14 14 14 14 13 13 13 13 13 13 14 14 14 14 14 14 14 13 13 13 13 13 13 13 13 13 13 13 13
15 15 14 14 14 14 14 14 14 14 14 14 14 14 13 13 13 13 13 13 13 13 13 13 13 13 13 13 13 13 13 13 13 13 13 13 13 13 13 13 13 13 13
14 14 14 14 14 14 14 14 14 14 14 14 14 14 14 13 13 13 13 13 13 13 13 13 13 13 13 13 13 13 13 13 13 13 13 13 13 13 13 13 13 13 13
14 14 14 14 14 14 14 14 14 13 13 13 13 13 13 13 13 13 13 13 13 13 13 13 13 13 13 13 13 13 13 13 13 13 13 13 13 13 13 12 12 12 12
14 14 14 14 14 14 14 13 13 13 13 13 13 13 13 13 13 13 13 13 13 13 13 13 13 13 12 12 13 13 13 13 13 13 12 12 12 12 12 12 12 12 12
14 14 14 14 14 14 13 13 13 13 13 13 13 13 13 13 13 13 13 13 13 12 12 12 12 12 12 12 12 12 12 12 13 13 12 12 12 12 12 12 12 12 12
14 14 14 14 14 14 13 13 13 13 13 13 13 13 13 13 13 13 13 13 12 12 12 12 12 12 12 12 12 12 12 12 12 12 12 12 12 12 12 12 12 12 11
14 14 14 14 14 13 13 13 13 13 13 13 13 13 13 13 13 13 13 13 12 12 12 12 12 12 12 12 12 12 12 12 12 12 12 12 12 12 12 12 12 12 11
14 14 14 14 13 13 13 13 13 13 13 13 13 13 13 13 12 12 12 12 12 12 12 12 12 12 12 12 12 12 12 12 12 12 12 12 12 12 11 12 11 11 11
14 14 14 14 13 13 13 13 13 13 13 13 12 12 12 12 12 12 12 12 12 12 12 12 12 12 12 12 11 11 12 12 12 11 11 11 11 11 11 11 11 11 11
14 14 13 13 13 13 13 13 13 13 13 12 12 12 12 12 12 12 12 12 12 12 12 12 12 11 11 11 11 11 11 11 11 11 11 11 11 11 11 11 11 11 11
14 13 13 13 13 13 13 13 13 12 12 12 12 12 12 12 12 12 12 12 12 12 11 11 11 11 11 11 11 11 11 11 11 11 11 11 11 10 10 10 10 10 10
13 13 13 13 13 13 13 13 13 12 12 12 12 12 12 12 12 11 11 11 11 11 11 11 11 11 11 11 11 11 11 11 10 10 10 10 10 10 10 10 10 10 10
13 13 13 13 13 13 13 13 13 12 12 12 12 12 11 11 11 11 11 11 11 11 11 11 11 11 11 11 11 10 10 10 10 10 10 10 10 10 10 10 10 10 10
13 13 13 13 12 12 12 12 12 12 12 12 12 12 11 11 11 11 11 11 10 10 10 10 10 10 10 10 10 10 10 10 10 10 10 10 10 10 10 10 10 9 9
13 13 13 13 12 12 12 12 12 12 12 12 12 11 11 11 11 11 11 10 10 10 10 10 10 10 10 10 10 10 10 10 10 10 10 10 9 9 9 9 9 9 9
13 13 13 12 12 12 12 12 12 12 12 12 11 11 11 11 11 11 10 10 10 10 10 10 10 10 10 10 9 9 9 9 9 9 9 9 9 9 9 9 9 9 8
13 13 13 12 12 12 12 12 12 12 12 11 11 11 11 11 11 10 10 10 10 10 10 10 9 9 9 9 9 9 9 9 9 9 9 9 9 9 9 9 9 8 8
13 13 13 12 12 12 12 12 12 12 11 11 11 11 11 11 10 10 10 10 10 10 10 9 9 9 9 9 9 9 9 8 9 9 8 8 8 8 9 9 8 8 8
13 13 12 12 12 12 12 12 11 11 11 11 11 11 10 10 10 10 10 10 10 10 9 9 9 9 9 9 9 9 8 8 8 8 8 8 8 8 7 8 8 8 8
Wind_Speed
3 4 4 5 6 7 7 6 6 6 6 7 7 8 7 8 8 8 8 10 10 10 9 9 8 8 8 8 8 8 7 8 7 7 7 7 7 6 6 6 6 6 6
4 3 4 4 5 6 6 6 6 5 5 5 6 7 7 7 8 9 9 9 10 10 10 9 8 8 8 7 7 7 7 7 7 7 7 6 6 7 6 6 6 7 7
5 4 3 3 4 5 7 7 7 6 5 5 5 5 6 7 7 8 9 9 9 10 11 10 10 9 8 7 7 6 6 7 7 8 8 7 6 6 7 7 7 7 7
6 5 3 3 4 5 5 4 4 5 5 4 4 4 4 5 6 7 8 9 9 9 10 11 10 9 9 8 7 7 7 7 7 7 8 7 7 7 6 6 7 7 6
6 5 3 3 5 4 3 4 3 4 4 4 4 4 4 4 4 6 6 8 8 8 8 9 10 10 9 8 8 7 7 6 7 7 7 8 7 7 6 6 6 7 6
5 5 4 4 4 4 3 3 4 3 3 3 4 4 4 4 4 4 4 6 7 7 8 8 8 8 9 8 7 7 7 6 6 6 6 7 7 7 6 6 6 6 6
4 4 3 3 3 3 3 4 4 4 3 2 3 3 4 4 4 4 4 4 5 6 7 7 8 8 7 8 8 7 6 6 5 6 6 6 6 6 6 7 6 5 5
4 4 3 3 3 3 3 3 3 2 2 2 2 2 2 3 3 3 3 3 3 4 5 6 6 6 7 6 7 8 7 6 5 5 6 6 6 5 6 6 7 6 5
3 3 3 3 3 3 3 3 4 4 2 1 1 3 2 1 1 2 2 2 3 2 2 4 5 5 5 6 6 7 7 6 5 5 5 6 6 6 5 5 5 5 6
2 3 3 3 2 2 3 3 3 3 3 2 1 1 1 3 2 1 2 2 2 2 2 2 3 3 4 4 5 6 7 6 6 5 5 5 5 5 5 4 4 4 4
1 2 2 2 2 2 3 2 2 3 2 3 2 2 2 1 1 2 1 2 2 2 1 1 1 2 3 3 3 5 5 5 5 5 4 4 4 4 4 3 3 3 3
0 0 1 1 2 2 2 2 2 3 2 2 2 2 2 2 2 3 2 1 1 2 2 1 1 1 1 2 2 4 4 5 4 4 4 3 3 3 3 3 3 3 2
1 2 1 1 1 2 2 2 2 2 2 2 2 2 2 2 2 3 3 2 1 2 2 1 2 1 1 1 1 2 3 3 4 4 4 4 4 3 3 3 3 3 2
3 2 2 2 2 2 2 2 1 1 1 2 2 2 1 2 3 3 3 3 1 1 1 2 1 2 2 1 1 0 1 1 2 2 2 2 3 3 3 3 3 3 3
2 2 3 2 2 2 2 3 2 1 1 1 1 1 1 1 1 2 3 3 4 2 3 2 2 1 2 2 2 1 1 1 1 0 1 1 2 2 2 2 2 2 2
3 3 3 3 2 2 2 3 2 2 2 1 1 1 0 0 1 1 2 2 2 3 3 2 2 1 1 1 1 1 1 1 1 1 1 1 1 1 1 2 1 1 2
4 4 3 3 3 3 3 3 3 3 3 2 1 1 1 1 1 1 1 2 2 2 3 2 1 1 1 0 0 0 1 1 1 1 1 1 1 0 1 1 1 1 1
4 4 3 3 3 3 3 4 4 3 3 3 2 2 2 1 1 1 1 2 2 2 3 2 1 1 1 1 0 0 1 1 1 1 2 2 2 2 1 1 1 1 1
4 4 4 4 4 4 4 4 4 4 4 4 3 3 3 2 2 2 2 2 2 2 2 2 2 1 1 0 1 1 1 1 1 2 2 3 3 3 3 2 2 1 1
5 5 4 4 4 4 4 4 4 4 4 4 4 4 4 4 4 4 3 3 2 2 2 2 2 1 1 1 1 1 1 1 1 1 2 2 3 3 3 3 3 3 3
5 5 4 3 3 4 4 5 5 5 4 4 4 4 4 5 6 5 3 3 3 3 3 2 2 1 2 1 2 2 2 1 1 1 1 2 2 2 3 3 4 4 4
4 4 4 5 4 4 5 6 5 5 5 5 5 4 4 4 5 6 6 6 6 4 4 3 3 3 4 3 2 2 2 1 2 1 1 2 1 2 3 4 5 5 5
4 4 4 4 5 5 6 6 6 5 5 5 5 4 4 3 4 3 4 4 5 6 7 5 4 5 4 5 4 3 3 3 3 2 2 2 1 2 4 5 6 6 5
4 4 5 5 4 5 6 6 6 4 4 4 5 5 5 4 4 4 3 2 2 3 5 5 5 5 5 5 5 4 4 2 1 1 2 2 2 2 3 5 6 6 6
4 4 3 4 4 5 5 5 5 3 3 4 4 4 5 5 5 5 4 3 2 3 3 4 5 4 4 4 6 4 3 2 1 2 1 1 1 2 2 3 5 6 7
3 3 2 3 4 5 5 6 5 3 3 3 3 3 5 5 5 6 5 4 4 4 2 1 1 1 2 3 6 5 5 3 2 2 2 2 1 0 2 2 2 4 5
Wind_Direction
76 67 64 66 67 78 85 84 81 77 74 67 67 67 60 56 52 49 48 54 58 63 71 74 75 75 76 76 75 77 75 75 74 73 74 73 73 83 84 78 74 74 74
95 84 79 75 71 80 89 91 90 85 75 72 63 61 59 56 51 51 49 48 51 57 61 64 67 68 72 79 76 73 71 70 68 66 68 72 72 74 80 82 78 77 74
108 101 95 88 83 92 94 91 84 81 76 69 57 53 55 55 55 53 50 48 46 49 53 56 61 63 64 69 73 75 71 68 67 64 64 68 70 72 78 78 76 76 73
117 109 105 101 99 100 99 97 88 83 72 66 57 46 47 51 52 53 51 49 48 45 44 49 53 58 60 62 66 71 72 72 71 70 67 69 68 68 71 75 73 73 72
115 111 109 106 106 98 94 107 90 97 93 80 71 54 44 43 41 53 50 47 46 46 45 45 47 54 56 57 61 64 68 70 72 73 72 70 66 65 65 70 73 73 71
117 114 109 107 108 103 90 96 100 85 92 95 80 58 42 37 42 45 42 45 45 45 46 47 45 46 48 50 56 61 64 66 70 72 76 72 71 68 67 70 70 73 73
124 117 115 115 116 119 126 125 116 98 80 85 77 47 29 34 42 40 37 42 41 42 47 46 45 43 37 38 43 50 56 63 65 69 73 71 68 67 67 67 66 72 73
133 138 133 141 135 129 125 131 125 112 86 70 104 90 26 4 10 25 23 34 32 38 43 44 46 43 40 39 37 46 47 54 59 68 75 72 68 69 72 66 64 66 73
117 129 139 140 144 146 154 156 145 138 144 68 84 133 137 216 315 347 8 22 18 25 19 30 39 37 37 39 40 43 45 47 54 69 74 74 67 68 73 70 69 70 67
107 118 131 140 147 152 160 171 155 154 149 154 83 71 132 153 148 336 336 349 4 15 360 9 21 29 31 35 37 41 46 44 50 62 68 68 63 59 65 71 69 71 70
90 115 143 145 152 161 168 165 156 156 156 163 167 149 108 88 126 154 259 318 341 336 338 333 352 11 18 28 30 39 44 43 43 44 49 59 59 53 53 62 64 64 68
2 99 152 154 162 164 174 176 167 166 171 167 171 168 166 167 176 164 192 236 277 292 301 315 319 325 355 17 27 41 49 48 46 43 42 49 46 38 41 42 42 37 42
226 239 202 195 187 185 179 160 160 173 180 180 185 190 188 194 174 161 163 188 232 279 301 297 272 276 304 343 348 28 48 48 45 52 52 51 48 43 37 29 22 14 16
212 210 202 205 199 180 171 154 155 182 171 180 190 184 187 205 186 178 172 164 172 288 296 279 281 252 258 259 283 338 16 25 28 31 31 38 43 38 34 24 16 10 11
204 193 195 197 192 175 168 155 163 181 156 162 173 173 186 217 193 193 183 179 173 207 257 259 261 262 244 236 250 230 244 271 304 325 4 10 11 12 7 359 9 18 14
202 192 197 191 189 184 169 163 171 173 155 174 169 155 172 221 154 168 180 187 185 184 220 241 236 251 241 214 234 206 234 249 261 253 277 306 351 3 8 2 10 31 37
195 199 203 195 193 194 184 173 183 175 171 180 183 173 209 187 162 177 171 172 179 178 208 258 254 246 175 159 359 82 269 273 275 266 254 247 241 279 359 13 54 58 49
201 203 198 195 202 198 190 187 191 186 186 193 200 196 233 205 197 195 180 193 196 188 188 221 245 243 221 222 187 31 337 310 278 276 256 249 237 227 225 223 162 132 76
203 202 196 201 208 204 198 199 195 196 202 208 202 201 220 201 226 219 200 201 197 186 177 187 218 214 236 233 85 18 1 332 293 283 275 261 242 231 228 218 210 198 177
202 206 204 207 207 205 202 201 198 203 210 217 213 209 213 208 217 216 211 204 186 173 164 177 199 207 220 211 144 184 304 307 288 297 304 279 251 235 233 233 229 224 225
208 205 200 206 208 205 209 202 199 203 207 216 224 224 224 221 220 214 210 195 180 181 177 180 196 202 211 193 205 196 209 276 287 252 288 292 262 252 258 247 242 237 236
206 198 202 204 210 221 218 209 201 204 206 211 224 232 235 235 234 231 226 211 191 188 192 192 202 209 225 212 193 187 174 157 274 253 191 277 236 239 260 257 246 244 243
199 203 210 207 214 225 221 215 209 204 207 217 224 226 235 235 229 225 232 228 221 215 204 196 204 216 211 205 182 188 197 201 224 223 172 250 253 253 269 263 251 246 246
197 204 211 212 215 229 224 219 211 203 206 222 225 217 216 231 224 205 198 208 227 234 223 212 212 221 215 196 183 183 192 194 237 239 172 221 240 254 281 273 254 244 246
197 203 202 201 206 231 224 213 200 192 209 229 233 221 212 221 225 202 187 199 234 260 247 212 217 227 226 199 167 139 142 146 242 260 192 203 247 277 278 269 264 254 253
191 190 206 211 210 226 225 210 196 189 207 229 239 238 226 223 222 204 195 194 218 240 225 212 226 258 237 203 185 179 180 179 193 238 206 188 222 261 291 276 271 272 260
Height
1534 1534 1534 1534 1535 1535 1535 1536 1536 1536 1537 1538 1538 1538 1539 1539 1539 1539 1539 1539 1540 1540 1539 1539 1539 1539 1539 1539 1539 1539 1540 1539 1539 1539 1539 1539 1539 1540 1540 1540 1541 1541 1541
1534 1535 1535 1535 1536 1536 1537 1537 1537 1537 1538 1539 1539 1539 1540 1540 1540 1540 1540 1540 1540 1540 1540 1540 1540 1540 1540 1540 1540 1540 1540 1540 1540 1539 1539 1539 1539 1540 1540 1540 1540 1541 1541
1535 1535 1536 1536 1537 1537 1537 1538 1538 1538 1539 1539 1539 1540 1540 1541 1541 1541 1541 1541 1541 1541 1541 1541 1541 1540 1540 1540 1540 1540 1540 1540 1540 1539 1539 1539 1539 1539 1540 1540 1540 1541 1541
1536 1536 1536 1537 1537 1538 1538 1538 1539 1539 1539 1540 1540 1540 1541 1541 1541 1542 1542 1542 1541 1541 1541 1541 1541 1541 1541 1540 1540 1540 1540 1540 1540 1540 1539 1539 1539 1539 1540 1540 1540 1541 1541
1536 1536 1537 1537 1538 1538 1539 1539 1539 1540 1540 1540 1540 1541 1541 1541 1542 1542 1542 1542 1542 1542 1542 1542 1542 1541 1541 1541 1540 1540 1540 1540 1540 1540 1540 1539 1539 1539 1540 1540 1540 1540 1540
1537 1537 1537 1537 1538 1538 1539 1539 1540 1540 1540 1540 1541 1541 1541 1542 1542 1542 1542 1542 1542 1542 1542 1542 1542 1542 1541 1541 1541 1541 1540 1540 1540 1540 1540 1540 1539 1539 1540 1540 1540 1540 1540
1537 1537 1537 1538 1538 1538 1539 1539 1540 1540 1541 1541 1541 1541 1542 1542 1542 1542 1543 1543 1543 1543 1543 1542 1542 1542 1542 1541 1541 1541 1540 1540 1540 1540 1540 1539 1540 1539 1539 1539 1539 1539 1540
1537 1537 1537 1537 1538 1538 1539 1539 1540 1540 1540 1541 1542 1541 1542 1543 1542 1543 1543 1543 1543 1543 1543 1543 1542 1542 1542 1541 1540 1540 1540 1540 1540 1540 1539 1539 1539 1539 1539 1539 1539 1539 1539
1536 1537 1537 1537 1537 1538 1538 1539 1539 1540 1540 1541 1541 1542 1542 1542 1542 1543 1542 1543 1543 1543 1543 1542 1542 1542 1542 1541 1541 1540 1540 1540 1540 1540 1540 1539 1539 1539 1539 1539 1539 1539 1539
1536 1536 1536 1537 1537 1537 1538 1538 1539 1539 1540 1540 1541 1541 1542 1542 1542 1542 1542 1542 1542 1542 1542 1542 1542 1541 1541 1541 1541 1540 1540 1540 1540 1540 1540 1540 1540 1539 1539 1539 1539 1539 1539
1535 1535 1535 1536 1536 1536 1537 1537 1538 1539 1539 1539 1540 1540 1540 1541 1541 1541 1541 1541 1541 1541 1541 1541 1541 1541 1541 1540 1540 1540 1540 1540 1540 1540 1540 1540 1539 1539 1539 1539 1539 1539 1539
1534 1534 1535 1535 1535 1535 1536 1536 1537 1537 1538 1538 1539 1539 1539 1539 1539 1539 1539 1540 1540 1540 1540 1540 1540 1540 1540 1539 1539 1539 1539 1539 1539 1539 1539 1539 1539 1539 1538 1538 1538 1537 1537
1533 1533 1533 1533 1534 1534 1535 1535 1535 1536 1536 1537 1537 1537 1538 1538 1538 1538 1538 1538 1538 1538 1538 1539 1538 1538 1538 1538 1538 1538 1538 1538 1538 1538 1538 1538 1538 1538 1537 1537 1537 1536 1536
1531 1532 1532 1532 1532 1533 1533 1533 1534 1534 1535 1535 1535 1536 1536 1536 1536 1536 1536 1537 1536 1537 1537 1537 1537 1537 1537 1537 1537 1537 1537 1537 1537 1537 1537 1537 1537 1536 1536 1536 1535 1535 1535
1530 1530 1530 1530 1530 1531 1531 1531 1532 1532 1533 1533 1533 1534 1534 1534 1534 1534 1534 1535 1536 1535 1535 1535 1535 1535 1535 1535 1535 1535 1535 1536 1536 1536 1536 1536 1535 1535 1534 1534 1534 1533 1533
1528 1528 1528 1528 1528 1529 1529 1529 1530 1530 1530 1531 1531 1531 1532 1532 1532 1532 1532 1533 1533 1533 1532 1532 1533 1533 1533 1533 1534 1534 1534 1534 1534 1534 1534 1534 1533 1533 1533 1532 1532 1532 1531
1525 1526 1526 1526 1526 1526 1527 1527 1528 1528 1528 1529 1529 1529 1529 1530 1530 1530 1530 1530 1530 1530 1530 1530 1531 1531 1531 1531 1531 1532 1532 1532 1532 1532 1532 1531 1531 1531 1531 1530 1530 1530 1529
1523 1523 1524 1524 1524 1524 1524 1525 1525 1526 1526 1526 1527 1527 1527 1527 1527 1527 1527 1527 1527 1527 1528 1527 1528 1528 1529 1529 1529 1529 1529 1529 1530 1530 1529 1529 1529 1529 1529 1528 1528 1528 1528
1520 1521 1521 1521 1521 1522 1522 1522 1523 1523 1524 1524 1525 1525 1525 1525 1524 1524 1524 1524 1524 1524 1525 1525 1525 1526 1526 1526 1526 1527 1527 1527 1527 1527 1527 1527 1526 1527 1527 1527 1526 1526 1526
1517 1518 1518 1518 1519 1519 1519 1520 1520 1521 1521 1522 1522 1522 1522 1522 1522 1521 1521 1521 1521 1521 1522 1522 1522 1522 1523 1523 1523 1524 1524 1524 1524 1524 1524 1524 1524 1524 1524 1524 1524 1524 1524
1514 1515 1515 1515 1516 1516 1517 1517 1517 1518 1518 1519 1519 1519 1519 1519 1519 1519 1518 1518 1518 1518 1518 1519 1519 1519 1520 1520 1520 1521 1521 1521 1521 1521 1521 1521 1521 1521 1521 1522 1522 1522 1522
1511 1511 1512 1512 1513 1513 1514 1514 1515 1515 1515 1515 1515 1516 1516 1516 1516 1516 1515 1515 1515 1515 1515 1516 1516 1516 1516 1517 1517 1517 1518 1518 1518 1519 1518 1518 1519 1518 1518 1519 1519 1519 1519
1507 1507 1508 1509 1509 1510 1510 1511 1511 1512 1512 1512 1512 1512 1512 1512 1512 1512 1512 1512 1512 1512 1512 1513 1512 1513 1513 1513 1514 1514 1514 1514 1515 1515 1515 1515 1516 1515 1516 1516 1516 1516 1516
1503 1503 1504 1505 1506 1506 1507 1507 1508 1508 1508 1508 1508 1508 1508 1508 1509 1509 1508 1508 1509 1509 1509 1509 1509 1510 1510 1510 1510 1511 1511 1511 1512 1512 1512 1511 1512 1512 1512 1513 1513 1513 1513
1499 1500 1500 1501 1501 1502 1502 1503 1503 1503 1504 1504 1504 1504 1505 1505 1505 1505 1505 1504 1505 1505 1506 1506 1506 1506 1507 1507 1507 1508 1508 1508 1508 1508 1509 1508 1508 1508 1508 1509 1509 1509 1509
1495 1495 1496 1497 1497 1497 1498 1499 1499 1499 1499 1500 1500 1500 1500 1501 1501 1501 1501 1501 1501 1501 1502 1502 1503 1503 1503 1504 1504 1504 1504 1504 1504 1504 1505 1505 1505 1505 1504 1504 1505 1505 1505